VK3BKO-13 Weather Reports


time (UTC)temp
C
wind
direction
speed
KPH
gust
KPH
rain 1hr
cm
rain 24hr
cm
rain mn
cm
humidity
%
barometer
mb
20260510011704 15 323 0.0 0.0 0.00 0.00 0.00 65 1031.2
20260510010204 15 306 0.0 1.6 0.00 0.00 0.00 66 1031.2
20260510004703 15 285 0.0 1.6 0.00 0.00 0.00 66 1031.2
20260510003204 15 321 0.0 0.0 0.00 0.00 0.00 68 1031.2
20260510001704 15 252 3.2 3.2 0.00 0.00 0.00 70 1031.2
20260510000204 15 314 0.0 0.0 0.00 0.00 0.00 71 1031.2
20260509234704 15 300 0.0 1.6 0.00 0.00 0.00 77 1031.2
20260509233204 14 317 0.0 0.0 0.00 0.00 0.00 81 1030.8
20260509231704 14 327 0.0 0.0 0.00 0.00 0.00 84 1030.8
20260509230204 13 316 0.0 0.0 0.00 0.00 0.00 87 1030.8
20260509224704 13 326 0.0 0.0 0.00 0.00 0.00 91 1030.5
20260509223204 13 326 0.0 0.0 0.00 0.00 0.00 92 1030.5
20260509221704 12 322 0.0 0.0 0.00 0.00 0.00 93 1030.5
20260509220203 12 324 0.0 0.0 0.00 0.00 0.00 93 1030.2
20260509214704 12 325 0.0 0.0 0.00 0.00 0.00 93 1030.2
20260509213204 12 323 1.6 1.6 0.00 0.00 0.00 93 1029.8
20260509211704 12 320 0.0 0.0 0.00 0.00 0.00 93 1029.8
20260509210204 11 320 0.0 0.0 0.00 0.00 0.00 93 1029.5
20260509204704 11 320 0.0 0.0 0.00 0.00 0.00 93 1029.5
20260509203203 12 320 0.0 0.0 0.00 0.00 0.00 92 1029.2
20260509201704 11 333 0.0 0.0 0.00 0.00 0.00 92 1029.2
20260509200204 11 328 0.0 0.0 0.00 0.00 0.00 92 1029.2
20260509194704 12 315 0.0 0.0 0.00 0.00 0.00 92 1029.2
20260509193204 12 333 0.0 0.0 0.00 0.00 0.00 92 1028.8
20260509191704 12 330 0.0 0.0 0.00 0.00 0.00 93 1028.8
20260509190204 12 328 0.0 0.0 0.00 0.00 0.00 93 1028.5
20260509184704 12 330 0.0 0.0 0.00 0.00 0.00 93 1028.5
20260509183203 12 290 1.6 1.6 0.00 0.00 0.00 94 1028.5
20260509181703 12 317 0.0 0.0 0.00 0.00 0.00 94 1028.5
20260509180204 12 321 0.0 0.0 0.00 0.00 0.00 94 1027.8
20260509174704 12 331 0.0 0.0 0.00 0.00 0.00 94 1028.1
20260509173204 12 330 0.0 0.0 0.00 0.00 0.00 94 1028.1
20260509171704 12 318 0.0 0.0 0.00 0.00 0.00 94 1028.1
20260509170204 11 321 0.0 0.0 0.00 0.00 0.00 94 1028.1
20260509164703 11 318 0.0 0.0 0.00 0.00 0.00 93 1028.1
20260509163203 11 329 0.0 0.0 0.00 0.00 0.00 93 1028.1
20260509161712 -17 0.0 0.0 0.00 0.00 0.00
20260509160204 12 329 0.0 0.0 0.00 0.00 0.00 93 1028.1
20260509154704 13 329 0.0 0.0 0.00 0.00 0.00 92 1028.5
20260509153204 13 317 0.0 0.0 0.00 0.00 0.00 92 1028.5
20260509151704 13 317 0.0 0.0 0.00 0.00 0.00 92 1028.5
20260509150204 13 313 1.6 1.6 0.00 0.00 0.00 92 1028.5
20260509144704 13 316 0.0 0.0 0.00 0.00 0.00 92 1028.5
20260509143204 13 316 0.0 0.0 0.00 0.00 0.00 91 1028.5
20260509141704 13 304 1.6 1.6 0.00 0.00 0.00 90 1028.5
20260509140204 13 308 1.6 1.6 0.00 0.00 0.00 90 1028.5
20260509134704 13 317 0.0 0.0 0.00 0.00 0.00 89 1028.5
20260509133205 13 318 0.0 0.0 0.00 0.00 0.00 88 1028.5
20260509131704 13 317 0.0 0.0 0.00 0.00 0.00 88 1028.5
20260509130204 13 308 0.0 1.6 0.00 0.00 0.00 87 1028.5
20260509124704 13 298 1.6 3.2 0.00 0.00 0.00 85 1028.5
20260509123204 13 313 0.0 0.0 0.00 0.00 0.00 86 1028.5
20260509121704 13 313 0.0 0.0 0.00 0.00 0.00 86 1028.5
20260509120204 13 315 0.0 0.0 0.00 0.00 0.00 87 1028.5
20260509114704 13 304 0.0 1.6 0.00 0.00 0.00 89 1028.5
20260509113204 13 327 0.0 0.0 0.00 0.00 0.00 89 1028.1
20260509111705 12 317 0.0 0.0 0.00 0.00 0.00 89 1028.1
20260509110204 12 318 0.0 0.0 0.00 0.00 0.00 89 1028.1
20260509104704 12 318 0.0 0.0 0.00 0.00 0.00 89 1028.1
20260509103204 12 313 0.0 0.0 0.00 0.00 0.00 88 1028.1
20260509101703 12 312 0.0 0.0 0.00 0.00 0.00 89 1028.1
20260509100205 12 314 0.0 0.0 0.00 0.00 0.00 88 1027.8
20260509094704 12 298 1.6 1.6 0.00 0.00 0.00 87 1028.1
20260509093204 13 283 1.6 1.6 0.00 0.00 0.00 87 1028.1
20260509091705 13 307 0.0 1.6 0.00 0.00 0.00 85 1027.8
20260509090203 14 292 0.0 1.6 0.00 0.00 0.00 84 1027.8
20260509084704 14 294 1.6 3.2 0.00 0.00 0.00 83 1027.8
20260509083204 14 306 0.0 0.0 0.00 0.00 0.00 85 1027.5
20260509081704 15 293 1.6 4.8 0.00 0.00 0.00 85 1027.1
20260509080204 15 246 6.4 6.4 0.00 0.00 0.00 86 1027.1
20260509074704 15 275 3.2 4.8 0.00 0.00 0.00 85 1026.8
20260509073204 15 302 1.6 1.6 0.00 0.00 0.00 84 1026.8
20260509071704 15 218 4.8 4.8 0.00 0.00 0.00 83 1026.8
20260509070204 15 296 1.6 3.2 0.00 0.00 0.00 84 1026.4
20260509064704 15 273 6.4 6.4 0.00 0.00 0.00 82 1026.4
20260509063204 15 309 3.2 4.8 0.00 0.00 0.00 81 1026.4
20260509061704 15 315 0.0 1.6 0.00 0.00 0.00 81 1026.4
20260509060203 16 317 1.6 1.6 0.00 0.00 0.00 80 1026.4
20260509054704 16 306 4.8 4.8 0.00 0.00 0.00 79 1026.4
20260509053203 16 326 1.6 1.6 0.00 0.00 0.00 80 1026.4
20260509051703 16 311 3.2 3.2 0.00 0.00 0.00 79 1026.1
20260509050204 16 299 6.4 9.7 0.00 0.00 0.00 78 1026.1
20260509044704 16 294 6.4 9.7 0.00 0.00 0.00 79 1026.4
20260509043204 17 284 3.2 4.8 0.00 0.00 0.00 74 1026.1
20260509041704 17 237 4.8 4.8 0.00 0.00 0.00 74 1026.4
20260509040203 17 279 4.8 6.4 0.00 0.00 0.00 76 1026.1
20260509034703 17 296 4.8 9.7 0.00 0.00 0.00 72 1026.4
20260509033204 17 307 3.2 3.2 0.00 0.00 0.00 74 1026.4
20260509031704 17 252 1.6 3.2 0.00 0.00 0.00 74 1026.4
20260509030203 17 261 4.8 4.8 0.00 0.00 0.00 74 1026.8
20260509024703 16 300 3.2 4.8 0.00 0.00 0.00 76 1026.8
20260509023232 16 283 3.2 3.2 0.00 0.00 0.00 78 1026.8
20260509021704 16 252 1.6 3.2 0.00 0.00 0.00 78 1027.1
20260509020204 17 300 6.4 6.4 0.00 0.00 0.00 73 1027.1
20260509014704 16 156 3.2 4.8 0.00 0.00 0.00 73 1027.5
20260509013204 16 246 3.2 4.8 0.00 0.00 0.00 74 1027.5